Resolute, Nunavut

3:26 PM MST on December 06, 2016 (GMT -0700)
Resolute CS

Weather History for CXRB - June, 2013

Change the Weather History Date:

Wednesday, June 26, 2013

  Actual Average (CYRB) Record (CYRB)
Temperature  
Mean Temperature 29 °F -  
Max Temperature 32 °F 38 °F 50 °F (2012)
Min Temperature 26 °F 31 °F 26 °F (2013)
Degree Days  
Heating Degree Days 36    
Moisture  
Dew Point 28 °F    
Average Humidity 92    
Maximum Humidity 96    
Minimum Humidity 82    
Precipitation  
Precipitation 0.00 in - - ()
Sea Level Pressure  
Sea Level Pressure 29.82 in    
Wind  
Wind Speed 18 mph ()    
Max Wind Speed 25 mph    
Max Gust Speed 31 mph    
Averages and records for this station are not official NWS values.
T = Trace of Precipitation, MM = Missing Value Source: Averaged Metar Reports

Daily Weather History Graph

Daily Weather History Graph

Search for Another Location

Airport or City:

Trip Planner

Search our weather history database for the weather conditions in past years. The results will help you decide how hot, cold, wet, or windy it might be!

Date:

Astronomy

Dec. 31, 1969 Rise Set
Actual Time Sun does not rise Sun does not rise
Civil Twilight Sun does not rise Sun does not rise
Nautical Twilight Sun does not rise Sun does not rise
Astronomical Twilight Sun does not rise Sun does not rise
Moon 11:48 PM MDT (6/26) 6:18 AM MDT (6/26)
Length of Visible Light 24h 00m
Length of Day
24h 00m
Waning Gibbous, 85% of the Moon is Illuminated
Jun 26
Waning Gibbous
Jun 29
Last Quarter
Jul 8
New
Jul 15
First Quarter
Jul 22
Full

Hourly Weather History & Observations

Time (MDT) Temp. Windchill Dew Point Humidity Pressure Visibility Wind Dir Wind Speed Gust Speed Precip Events Conditions
12:00 AM 28 °F - 27 °F 92% 29.83 in - NNW 18.4 mph - -  
12:00 AM 28.2 °F 15.5 °F 26.6 °F 94% 29.83 in - NNW 18.4 mph 25.3 mph N/A   Unknown
1:00 AM 26.8 °F 14.1 °F 24.8 °F 92% 29.85 in - NNW 17.3 mph 28.8 mph N/A   Unknown
2:00 AM 28.6 °F 15.3 °F 25.5 °F 88% 29.85 in - NNW 20.7 mph 29.9 mph N/A   Unknown
3:00 AM 29.5 °F 17.6 °F 26.2 °F 88% 29.85 in - NNW 17.3 mph 24.2 mph N/A   Unknown
4:00 AM 29.5 °F 17.6 °F 26.6 °F 89% 29.85 in - NW 17.3 mph - N/A   Unknown
5:00 AM 28.9 °F 15.1 °F 26.4 °F 90% 29.85 in - NW 23.0 mph - N/A   Unknown
6:00 AM 30 °F - 27 °F 82% 29.84 in - NW 21.9 mph - -  
6:00 AM 29.7 °F 16.4 °F 26.6 °F 88% 29.84 in - NW 21.9 mph - N/A   Unknown
7:00 AM 29.5 °F 16.5 °F 26.6 °F 89% 29.83 in - WNW 20.7 mph - N/A   Unknown
8:00 AM 29.5 °F 16.8 °F 27.7 °F 93% 29.83 in - WNW 19.6 mph 25.3 mph N/A   Unknown
9:00 AM 29.5 °F 16.8 °F 28.2 °F 95% 29.82 in - WNW 19.6 mph 27.6 mph N/A   Unknown
10:00 AM 30.2 °F 16.5 °F 28.4 °F 93% 29.81 in - WNW 24.2 mph 31.1 mph N/A   Unknown
11:00 AM 30.4 °F 16.5 °F 28.8 °F 94% 29.79 in - WNW 25.3 mph 31.1 mph N/A   Unknown
12:00 PM 30 °F - 29 °F 92% 29.80 in - WNW 21.9 mph - -  
12:00 PM 30.0 °F 16.9 °F 28.6 °F 94% 29.80 in - WNW 21.9 mph 28.8 mph N/A   Unknown
1:00 PM 30.0 °F 16.9 °F 28.4 °F 94% 29.79 in - WNW 21.9 mph 27.6 mph N/A   Unknown
2:00 PM 30.0 °F 16.9 °F 28.8 °F 95% 29.79 in - WNW 21.9 mph - N/A   Unknown
3:00 PM 29.8 °F 16.6 °F 28.8 °F 96% 29.80 in - WNW 21.9 mph 28.8 mph N/A   Unknown
4:00 PM 31.3 °F 18.9 °F 29.1 °F 92% 29.80 in - WNW 20.7 mph 27.6 mph N/A   Unknown
5:00 PM 31.8 °F 19.6 °F 29.1 °F 90% 29.81 in - WNW 20.7 mph 27.6 mph N/A   Unknown
6:00 PM 32 °F - 29 °F 85% 29.81 in - NW 19.6 mph - -  
6:00 PM 32.0 °F 20.1 °F 29.1 °F 89% 29.81 in - NW 19.6 mph - N/A   Unknown
7:00 PM 32.0 °F 21.6 °F 29.8 °F 92% 29.82 in - WNW 15.0 mph 21.9 mph N/A   Unknown
8:00 PM 31.8 °F 20.6 °F 30.0 °F 93% 29.82 in - WNW 17.3 mph - N/A   Unknown
9:00 PM 31.3 °F 19.9 °F 29.5 °F 93% 29.83 in - WNW 17.3 mph - N/A   Unknown
10:00 PM 31.1 °F 20.9 °F 29.8 °F 95% 29.83 in - WNW 13.8 mph - N/A   Unknown
11:00 PM 31.1 °F 21.4 °F 30.2 °F 96% 29.83 in - WNW 12.7 mph - N/A   Unknown